This is the latest recevied weather packets stored in our database for station/object OK1KZE-6. If no packets are shown the sender has not sent any weather packets the latest 10 day(s).
| Time | Temp. | Humidity | Pressure | Rain* | Wind** | Luminosity | Snow |
|---|---|---|---|---|---|---|---|
| 1777542907 | 8.33° C | 36% | 1032.7 hPa | - | - | - | - |
| 1777542608 | 8.89° C | 34% | 1032.4 hPa | - | - | - | - |
| 1777542308 | 7.78° C | 35% | 1032.7 hPa | - | - | - | - |
| 1777542008 | 7.78° C | 37% | 1032.5 hPa | - | - | - | - |
| 1777541708 | 8.33° C | 36% | 1032.5 hPa | - | - | - | - |
| 1777541408 | 7.78° C | 37% | 1032.4 hPa | - | - | - | - |
| 1777541107 | 7.22° C | 37% | 1032.6 hPa | - | - | - | - |
| 1777540808 | 8.33° C | 38% | 1032.4 hPa | - | - | - | - |
| 1777540508 | 8.33° C | 37% | 1032.4 hPa | - | - | - | - |
| 1777540208 | 8.33° C | 37% | 1032.4 hPa | - | - | - | - |
| 1777539908 | 8.89° C | 38% | 1032.8 hPa | - | - | - | - |
| 1777539608 | 7.78° C | 38% | 1032.6 hPa | - | - | - | - |
| 1777539307 | 7.78° C | 39% | 1032.5 hPa | - | - | - | - |
| 1777539008 | 7.22° C | 38% | 1032.5 hPa | - | - | - | - |
| 1777538708 | 8.33° C | 38% | 1032.7 hPa | - | - | - | - |
| 1777538408 | 7.78° C | 38% | 1032.7 hPa | - | - | - | - |
| 1777538108 | 7.78° C | 39% | 1032.6 hPa | - | - | - | - |
| 1777537508 | 7.78° C | 39% | 1032.4 hPa | - | - | - | - |
| 1777537208 | 7.22° C | 39% | 1032.9 hPa | - | - | - | - |
| 1777536908 | 7.22° C | 40% | 1032.7 hPa | - | - | - | - |
| 1777536608 | 7.22° C | 39% | 1032.8 hPa | - | - | - | - |
| 1777536309 | 7.78° C | 39% | 1032.7 hPa | - | - | - | - |
| 1777536008 | 7.22° C | 39% | 1032.9 hPa | - | - | - | - |
| 1777535708 | 7.22° C | 41% | 1032.7 hPa | - | - | - | - |
| 1777535409 | 6.67° C | 42% | 1032.7 hPa | - | - | - | - |
* Rain since midnight (hover to see other rain measurements)
** Current wind speed in m/s (hover to see current wind gust speed)